CZ-2D DEB

Satellite information

Favourite Embed

Satellite Type and Status

DEBRISIN ORBIT

Key statistics

Satellite CZ-2D DEB at a glance.

Uptime

3261

Days in orbit

Revolutions

≈ 13.9

Per day

Orbit

SSO

Sun Synchronous Orbit

Inclination

98.5

Latest

Satellite identification and parameters

Extended collection of information and parameters for CZ-2D DEB.

Object identification

Identified? True

Debris? True

Object name: CZ-2D DEB

International designator: 2016-068C

Object number (NORAD): 44603

Object ID (CCSDS): 44603

Country: PEOPLES REPUBLIC OF CHINA (PRC)

Current information (Y/N): Y

RCS size: SMALL

Orbital parameters

Period: 103.301 minutes

Inclination: 98.5417 deg

SMA: 7292.845 km

Apoapsis: 1071.41 km

Periapsis: 758.01 km

RAAN: 104.7715 deg

Eccentricy: 0.02148684

Argument of periapsis: 193.0141 deg

Mean anomaly: 166.5424 deg

Mean motion: 13.93982416 rev/day

Mean motion (dot): 0.00001397 rev/day2

B* drag term: 0.00089753203 1/REarth

Two-line elements (TLE)

Creation date: Oct. 16, 2025, 2:37 a.m.

Reference frame: TEME

Reference center: EARTH

Epoch: Oct. 15, 2025, 10:19 p.m. UTC

TLE line 0: 0 CZ-2D DEB

TLE line 1: 1 44603U 16068C 25288.93004622 .00001397 00000-0 89753-3 0 9994

TLE line 2: 2 44603 98.5417 104.7715 0214868 193.0141 166.5424 13.93982416940092

Live tracking on map

Real-time ground track for satellite CZ-2D DEB.

In-orbit conjunctions

A list of the most updated potential collisions computed for object CZ-2D DEB.

Target Orbit TCA Probability of collision Miss distance Type
CZ-4C R/B LEO 2025-09-30 09:04:23 0.000198741 860.0 (m) ROCKET BODY
COSMOS 1190 LEO 2025-03-04 19:51:23 0.001357253 51.0 (m) PAYLOAD

Associated space launch

The Yunhai-1 satellite is designed for detecting environmental elements in the atmosphere and ocean, the space environment, disaster prevention and reduction, and scientific experimentation. It is made by the Shanghai Institute of Spaceflight Technology.

CZ-2D DEB was lifted into orbit during the mission ‘Long March 2D | YunHai 1-01’, on board a Long March 2D space rocket.

The launch took place on Nov. 11, 2016, 11:14 p.m. from Launch Area 4 (SLS-2 / 603).

For more information about the launch, click the button.

Launch to space Long March 2D | YunHai 1-01
Long March 2D | YunHai 1-01

Agency: N/A

Status: Launch Successful

Launch date: Nov. 11, 2016, 11:14 p.m. UTC

Rocket: Long March 2D

Launch pad: Launch Area 4 (SLS-2 / 603)

Location: Jiuquan Satellite Launch Center, People's Republic of China

...

Latest news about this satellite

There are no fresh news available about this satellite. Check back as we update our databases every day.


Newsletter sign-up

Weekly statistics, charts and insights to help you stay on top of the space industry.